QPF
0.06 0.07 0.07 0.06 0.06 0.05 0.03 0.03 0.04 0.05 0.05 0.05 0.05 0.07 0.08 0.09 0.09 0.07 0.05 0.05 0.05 0.04 0.04 0.03 0.03 0.03 0.03 0.03 0.03 0.04 0.03 0.03 0.03 0.03 0.03 0.04 0.04 0.04
0.05 0.05 0.06 0.05 0.05 0.05 0.04 0.04 0.04 0.05 0.04 0.04 0.05 0.07 0.08 0.08 0.08 0.06 0.04 0.04 0.04 0.03 0.03 0.03 0.03 0.03 0.04 0.04 0.04 0.04 0.03 0.02 0.02 0.02 0.02 0.02 0.03 0.03
0.04 0.04 0.04 0.04 0.04 0.04 0.03 0.03 0.03 0.03 0.04 0.03 0.04 0.05 0.06 0.05 0.05 0.05 0.04 0.03 0.03 0.03 0.03 0.03 0.03 0.03 0.04 0.04 0.04 0.04 0.04 0.03 0.03 0.02 0.02 0.02 0.02 0.02
0.02 0.03 0.03 0.02 0.03 0.03 0.02 0.02 0.02 0.02 0.03 0.04 0.04 0.04 0.04 0.03 0.03 0.03 0.03 0.03 0.02 0.03 0.03 0.03 0.03 0.04 0.04 0.04 0.03 0.02 0.02 0.02 0.02 0.02 0.02 0.02 0.02 0.02
0.02 0.02 0.02 0.02 0.02 0.03 0.02 0.02 0.02 0.03 0.03 0.04 0.04 0.04 0.04 0.04 0.03 0.03 0.03 0.03 0.03 0.04 0.03 0.03 0.03 0.03 0.02 0.02 0.02 0.02 0.02 0.02 0.02 0.02 0.02 0.02 0.02 0.02
0.02 0.01 0.02 0.02 0.02 0.02 0.03 0.02 0.02 0.02 0.03 0.03 0.04 0.04 0.03 0.03 0.02 0.02 0.02 0.02 0.03 0.03 0.03 0.02 0.02 0.02 0.02 0.02 0.02 0.02 0.02 0.01 0.01 0.02 0.02 0.02 0.02 0.02
0.01 0.01 0.01 0.01 0.02 0.02 0.02 0.02 0.02 0.02 0.02 0.02 0.02 0.02 0.02 0.01 0.01 0.01 0.01 0.02 0.02 0.03 0.03 0.03 0.02 0.01 0.01 0.02 0.02 0.02 0.02 0.01 0.01 0.01 0.01 0.02 0.02 0.02
0.01 0.01 0.01 0.02 0.02 0.03 0.03 0.03 0.03 0.02 0.02 0.02 0.02 0.02 0.01 0.01 0.01 0.01 0.02 0.02 0.02 0.02 0.02 0.02 0.02 0.02 0.02 0.02 0.02 0.02 0.01 0.01 0.01 0.01 0.01 0.02 0.03 0.03
0.01 0.01 0.01 0.02 0.02 0.02 0.02 0.03 0.03 0.02 0.02 0.02 0.02 0.01 0.01 0.01 0.01 0.01 0.01 0.01 0.02 0.02 0.01 0.02 0.01 0.01 0.01 0.02 0.03 0.02 0.02 0.02 0.02 0.02 0.03 0.04 0.05 0.05
0.01 0.01 0.01 0.02 0.02 0.02 0.02 0.02 0.02 0.02 0.02 0.02 0.01 0.01 0.01 0.01 0.01 0.02 0.02 0.02 0.02 0.02 0.02 0.02 0.02 0.02 0.02 0.02 0.03 0.03 0.03 0.03 0.04 0.05 0.05 0.05 0.05 0.05
0.01 0.01 0.01 0.01 0.02 0.02 0.02 0.02 0.02 0.02 0.02 0.02 0.02 0.02 0.02 0.03 0.02 0.02 0.03 0.03 0.03 0.02 0.02 0.02 0.02 0.02 0.02 0.02 0.03 0.04 0.04 0.04 0.05 0.06 0.04 0.03 0.04 0.05
0.01 0.01 0.02 0.02 0.02 0.02 0.02 0.02 0.02 0.02 0.02 0.02 0.02 0.02 0.02 0.02 0.03 0.03 0.04 0.04 0.03 0.02 0.02 0.02 0.01 0.02 0.03 0.03 0.04 0.04 0.04 0.05 0.05 0.04 0.03 0.03 0.03 0.04
0.02 0.02 0.02 0.02 0.02 0.02 0.02 0.02 0.02 0.02 0.01 0.01 0.02 0.02 0.02 0.02 0.02 0.03 0.04 0.04 0.04 0.03 0.02 0.02 0.02 0.02 0.03 0.04 0.05 0.05 0.05 0.05 0.04 0.03 0.03 0.02 0.03 0.03
0.03 0.03 0.02 0.02 0.02 0.02 0.02 0.02 0.02 0.02 0.02 0.02 0.02 0.02 0.02 0.02 0.02 0.03 0.03 0.04 0.04 0.04 0.03 0.03 0.03 0.02 0.03 0.03 0.04 0.04 0.04 0.04 0.03 0.03 0.03 0.03 0.03 0.03
0.02 0.03 0.03 0.02 0.03 0.03 0.03 0.02 0.02 0.02 0.02 0.02 0.02 0.02 0.01 0.02 0.02 0.02 0.03 0.04 0.04 0.04 0.04 0.03 0.03 0.03 0.03 0.03 0.03 0.03 0.04 0.04 0.03 0.03 0.02 0.03 0.03 0.03
0.03 0.03 0.03 0.03 0.03 0.03 0.03 0.02 0.02 0.02 0.02 0.02 0.02 0.02 0.02 0.02 0.02 0.02 0.03 0.04 0.04 0.05 0.05 0.04 0.04 0.04 0.04 0.03 0.03 0.03 0.03 0.04 0.03 0.02 0.02 0.02 0.03 0.03
0.03 0.03 0.02 0.02 0.02 0.02 0.02 0.02 0.02 0.02 0.02 0.02 0.02 0.01 0.01 0.02 0.02 0.03 0.03 0.03 0.04 0.04 0.04 0.04 0.04 0.04 0.04 0.03 0.03 0.03 0.03 0.02 0.03 0.02 0.02 0.02 0.03 0.03
0.03 0.03 0.02 0.02 0.02 0.02 0.03 0.02 0.02 0.02 0.01 0.01 0.01 0.01 0.01 0.02 0.02 0.03 0.03 0.03 0.03 0.03 0.03 0.03 0.03 0.04 0.05 0.04 0.03 0.03 0.02 0.02 0.02 0.02 0.02 0.02 0.02 0.02
0.04 0.04 0.03 0.03 0.03 0.03 0.03 0.03 0.02 0.01 0.01 0.01 0.01 0.01 0.01 0.02 0.02 0.03 0.03 0.03 0.03 0.02 0.02 0.03 0.03 0.04 0.04 0.04 0.03 0.02 0.02 0.02 0.02 0.03 0.03 0.02 0.02 0.02
0.05 0.05 0.04 0.03 0.03 0.03 0.03 0.04 0.03 0.02 0.02 0.01 0.01 0.01 0.01 0.02 0.02 0.02 0.02 0.03 0.03 0.02 0.02 0.02 0.02 0.02 0.02 0.03 0.03 0.02 0.02 0.03 0.02 0.02 0.02 0.02 0.02 0.01
0.04 0.05 0.04 0.04 0.03 0.03 0.03 0.03 0.03 0.02 0.02 0.02 0.02 0.02 0.02 0.02 0.02 0.02 0.02 0.02 0.03 0.02 0.03 0.02 0.02 0.02 0.02 0.02 0.02 0.02 0.02 0.03 0.03 0.02 0.02 0.02 0.02 0.01
0.04 0.05 0.04 0.04 0.03 0.03 0.03 0.03 0.03 0.02 0.02 0.02 0.02 0.02 0.02 0.02 0.02 0.03 0.03 0.03 0.03 0.03 0.03 0.03 0.02 0.02 0.02 0.02 0.02 0.02 0.02 0.03 0.03 0.03 0.02 0.02 0.02 0.03
0.04 0.04 0.04 0.04 0.03 0.03 0.03 0.03 0.03 0.02 0.02 0.02 0.02 0.03 0.03 0.03 0.03 0.03 0.03 0.03 0.03 0.02 0.02 0.02 0.02 0.02 0.02 0.02 0.03 0.03 0.03 0.03 0.02 0.02 0.02 0.02 0.01 0.02
MSLP
1012.73 1012.81 1012.89 1012.94 1012.92 1012.82 1012.64 1012.40 1012.12 1011.83 1011.56 1011.33 1011.15 1011.02 1010.91 1010.80 1010.68 1010.51 1010.29 1010.02 1009.72 1009.41 1009.11 1008.86 1008.69 1008.61 1008.63 1008.76 1009.00 1009.34 1009.76 1010.27 1010.85 1011.48 1012.15 1012.85 1013.56 1014.26
1012.00 1012.08 1012.17 1012.22 1012.21 1012.13 1011.98 1011.76 1011.52 1011.26 1011.03 1010.83 1010.69 1010.59 1010.52 1010.45 1010.37 1010.24 1010.06 1009.82 1009.54 1009.23 1008.93 1008.64 1008.42 1008.27 1008.21 1008.26 1008.42 1008.69 1009.07 1009.55 1010.12 1010.76 1011.45 1012.18 1012.93 1013.66
1011.17 1011.25 1011.33 1011.38 1011.39 1011.34 1011.22 1011.04 1010.84 1010.63 1010.45 1010.29 1010.19 1010.12 1010.08 1010.04 1009.98 1009.88 1009.73 1009.52 1009.26 1008.96 1008.65 1008.34 1008.08 1007.87 1007.75 1007.74 1007.84 1008.06 1008.40 1008.87 1009.44 1010.10 1010.83 1011.60 1012.39 1013.16
1010.28 1010.35 1010.43 1010.49 1010.51 1010.48 1010.40 1010.27 1010.13 1009.98 1009.84 1009.73 1009.66 1009.62 1009.59 1009.57 1009.52 1009.44 1009.30 1009.11 1008.86 1008.57 1008.25 1007.94 1007.64 1007.40 1007.23 1007.16 1007.22 1007.40 1007.73 1008.18 1008.77 1009.46 1010.23 1011.05 1011.88 1012.70
1009.35 1009.40 1009.46 1009.52 1009.56 1009.55 1009.52 1009.45 1009.36 1009.27 1009.19 1009.13 1009.10 1009.08 1009.07 1009.05 1009.00 1008.92 1008.79 1008.60 1008.35 1008.07 1007.75 1007.42 1007.10 1006.83 1006.63 1006.52 1006.54 1006.69 1007.00 1007.46 1008.06 1008.78 1009.59 1010.46 1011.34 1012.21
1008.36 1008.39 1008.43 1008.48 1008.51 1008.54 1008.54 1008.53 1008.50 1008.48 1008.47 1008.46 1008.47 1008.47 1008.48 1008.46 1008.41 1008.33 1008.19 1008.00 1007.75 1007.46 1007.14 1006.81 1006.48 1006.18 1005.95 1005.82 1005.80 1005.93 1006.23 1006.68 1007.29 1008.04 1008.89 1009.80 1010.73 1011.64
1007.30 1007.27 1007.28 1007.30 1007.33 1007.36 1007.40 1007.44 1007.49 1007.54 1007.60 1007.66 1007.72 1007.77 1007.79 1007.79 1007.75 1007.66 1007.52 1007.33 1007.09 1006.80 1006.48 1006.14 1005.80 1005.50 1005.24 1005.08 1005.04 1005.15 1005.42 1005.87 1006.48 1007.24 1008.12 1009.06 1010.04 1010.99
1006.12 1006.03 1005.97 1005.95 1005.95 1005.99 1006.05 1006.15 1006.26 1006.40 1006.54 1006.68 1006.81 1006.92 1006.99 1007.02 1007.00 1006.93 1006.80 1006.62 1006.39 1006.11 1005.80 1005.47 1005.14 1004.82 1004.56 1004.38 1004.32 1004.40 1004.66 1005.09 1005.69 1006.45 1007.33 1008.29 1009.30 1010.29
1004.81 1004.64 1004.50 1004.41 1004.38 1004.40 1004.48 1004.62 1004.80 1005.02 1005.26 1005.50 1005.73 1005.92 1006.07 1006.16 1006.19 1006.15 1006.06 1005.91 1005.70 1005.45 1005.16 1004.84 1004.52 1004.22 1003.96 1003.77 1003.70 1003.76 1003.99 1004.40 1004.98 1005.72 1006.60 1007.57 1008.58 1009.60
1003.41 1003.13 1002.90 1002.73 1002.63 1002.63 1002.71 1002.89 1003.14 1003.45 1003.79 1004.14 1004.48 1004.78 1005.03 1005.20 1005.31 1005.34 1005.30 1005.20 1005.04 1004.83 1004.57 1004.29 1004.00 1003.72 1003.48 1003.30 1003.23 1003.29 1003.50 1003.89 1004.45 1005.16 1006.01 1006.97 1007.98 1009.00
1001.98 1001.58 1001.24 1000.98 1000.82 1000.78 1000.86 1001.06 1001.37 1001.76 1002.20 1002.66 1003.12 1003.54 1003.90 1004.18 1004.38 1004.50 1004.54 1004.50 1004.40 1004.25 1004.05 1003.82 1003.58 1003.34 1003.14 1002.99 1002.94 1003.01 1003.22 1003.58 1004.12 1004.80 1005.62 1006.55 1007.53 1008.54
1000.62 1000.11 999.67 999.32 999.09 999.00 999.06 999.27 999.62 1000.07 1000.59 1001.16 1001.72 1002.25 1002.72 1003.11 1003.41 1003.62 1003.74 1003.79 1003.76 1003.68 1003.55 1003.39 1003.22 1003.05 1002.90 1002.81 1002.79 1002.89 1003.11 1003.48 1003.99 1004.65 1005.43 1006.32 1007.26 1008.24
999.45 998.85 998.31 997.88 997.58 997.44 997.47 997.67 998.02 998.51 999.08 999.71 1000.35 1000.97 1001.53 1002.01 1002.40 1002.70 1002.90 1003.03 1003.08 1003.08 1003.03 1002.96 1002.86 1002.77 1002.70 1002.68 1002.73 1002.87 1003.13 1003.51 1004.02 1004.65 1005.40 1006.24 1007.14 1008.06
998.56 997.89 997.29 996.79 996.42 996.23 996.21 996.37 996.70 997.17 997.75 998.40 999.07 999.73 1000.34 1000.89 1001.34 1001.71 1001.99 1002.19 1002.33 1002.41 1002.45 1002.46 1002.46 1002.47 1002.50 1002.56 1002.69 1002.90 1003.20 1003.61 1004.12 1004.74 1005.45 1006.24 1007.09 1007.96
998.02 997.31 996.66 996.11 995.69 995.43 995.35 995.44 995.71 996.12 996.66 997.27 997.92 998.57 999.19 999.75 1000.24 1000.66 1000.99 1001.26 1001.47 1001.63 1001.76 1001.87 1001.98 1002.09 1002.23 1002.39 1002.61 1002.90 1003.25 1003.70 1004.22 1004.83 1005.51 1006.26 1007.04 1007.85
997.84 997.12 996.46 995.87 995.40 995.07 994.90 994.91 995.07 995.38 995.82 996.34 996.91 997.50 998.08 998.62 999.11 999.55 999.92 1000.24 1000.52 1000.77 1000.99 1001.21 1001.42 1001.65 1001.89 1002.16 1002.48 1002.84 1003.26 1003.73 1004.27 1004.88 1005.53 1006.23 1006.96 1007.70
997.98 997.28 996.61 996.00 995.49 995.09 994.83 994.72 994.75 994.93 995.22 995.61 996.06 996.54 997.04 997.53 997.99 998.42 998.81 999.18 999.52 999.85 1000.18 1000.50 1000.83 1001.17 1001.52 1001.90 1002.31 1002.74 1003.21 1003.73 1004.27 1004.86 1005.48 1006.13 1006.80 1007.49
998.36 997.69 997.04 996.42 995.86 995.40 995.04 994.81 994.70 994.72 994.84 995.06 995.36 995.72 996.10 996.51 996.92 997.33 997.74 998.15 998.56 998.97 999.39 999.83 1000.27 1000.73 1001.19 1001.67 1002.15 1002.66 1003.17 1003.70 1004.25 1004.81 1005.39 1005.99 1006.60 1007.22
998.89 998.25 997.62 996.99 996.41 995.88 995.44 995.08 994.83 994.69 994.65 994.70 994.84 995.05 995.31 995.62 995.98 996.36 996.78 997.22 997.70 998.20 998.72 999.27 999.82 1000.39 1000.96 1001.52 1002.08 1002.63 1003.17 1003.71 1004.24 1004.78 1005.31 1005.85 1006.40 1006.96
999.46 998.86 998.24 997.62 997.02 996.44 995.92 995.47 995.09 994.81 994.61 994.50 994.49 994.56 994.71 994.93 995.22 995.58 996.00 996.48 997.02 997.60 998.22 998.87 999.54 1000.20 1000.86 1001.50 1002.12 1002.71 1003.26 1003.79 1004.30 1004.79 1005.27 1005.75 1006.24 1006.73
1000.01 999.44 998.84 998.23 997.61 997.01 996.44 995.91 995.44 995.04 994.72 994.48 994.34 994.29 994.33 994.47 994.71 995.04 995.46 995.97 996.56 997.21 997.92 998.66 999.41 1000.17 1000.90 1001.61 1002.27 1002.88 1003.44 1003.96 1004.43 1004.88 1005.31 1005.73 1006.15 1006.59
1000.50 999.95 999.37 998.77 998.16 997.55 996.95 996.38 995.85 995.37 994.96 994.63 994.39 994.24 994.20 994.27 994.46 994.76 995.17 995.70 996.32 997.02 997.79 998.60 999.42 1000.24 1001.04 1001.79 1002.48 1003.11 1003.67 1004.17 1004.62 1005.03 1005.41 1005.78 1006.16 1006.54
1000.94 1000.40 999.83 999.25 998.65 998.05 997.45 996.87 996.31 995.80 995.34 994.95 994.64 994.42 994.32 994.33 994.46 994.73 995.13 995.65 996.28 997.01 997.80 998.65 999.52 1000.38 1001.21 1001.99 1002.70 1003.34 1003.90 1004.39 1004.82 1005.20 1005.55 1005.90 1006.24 1006.60
Thickness
5492 5491 5491 5490 5490 5489 5489 5488 5487 5489 5492 5491 5488 5488 5487 5488 5488 5488 5489 5490 5492 5492 5492 5492 5492 5492 5492 5492 5491 5491 5490 5489 5488 5488 5488 5488 5488 5488
5480 5479 5479 5479 5479 5479 5478 5477 5476 5476 5479 5480 5478 5477 5477 5477 5477 5477 5478 5479 5480 5480 5481 5481 5481 5482 5482 5481 5481 5481 5480 5479 5479 5478 5478 5477 5477 5477
5468 5468 5469 5468 5469 5469 5468 5468 5466 5465 5467 5470 5467 5466 5466 5466 5467 5467 5468 5468 5470 5470 5471 5471 5472 5472 5472 5472 5472 5471 5470 5469 5468 5468 5467 5467 5468 5468
5457 5458 5458 5458 5458 5458 5458 5458 5457 5456 5456 5458 5457 5455 5455 5455 5456 5456 5457 5459 5460 5461 5461 5462 5463 5463 5463 5463 5463 5462 5461 5460 5459 5458 5458 5459 5459 5459
5446 5447 5448 5448 5448 5448 5447 5447 5447 5447 5445 5446 5447 5445 5445 5444 5444 5445 5447 5449 5450 5450 5452 5452 5453 5453 5454 5454 5454 5453 5452 5451 5450 5450 5450 5450 5450 5451
5436 5437 5437 5438 5438 5438 5438 5438 5438 5437 5436 5435 5436 5436 5435 5434 5433 5434 5436 5438 5438 5440 5441 5442 5442 5443 5445 5446 5446 5445 5444 5443 5442 5442 5442 5442 5442 5443
5425 5426 5427 5428 5429 5429 5429 5429 5429 5427 5426 5425 5427 5426 5426 5425 5424 5424 5426 5427 5429 5430 5431 5432 5433 5435 5436 5436 5437 5437 5436 5436 5435 5435 5435 5436 5436 5436
5416 5416 5417 5418 5419 5420 5421 5421 5420 5419 5418 5417 5418 5418 5418 5416 5416 5416 5416 5416 5419 5421 5420 5423 5424 5425 5427 5428 5429 5430 5429 5428 5428 5429 5429 5429 5429 5429
5407 5407 5408 5409 5409 5409 5411 5411 5411 5410 5410 5409 5409 5410 5410 5409 5408 5408 5407 5406 5408 5409 5410 5413 5414 5416 5418 5420 5422 5422 5422 5423 5423 5423 5423 5423 5424 5424
5398 5398 5398 5398 5399 5400 5401 5400 5400 5401 5401 5401 5402 5402 5402 5402 5401 5401 5399 5398 5399 5400 5401 5402 5405 5407 5410 5412 5414 5415 5415 5416 5416 5416 5417 5417 5417 5417
5390 5390 5390 5390 5392 5393 5392 5391 5392 5392 5393 5393 5393 5394 5394 5394 5394 5393 5392 5392 5392 5392 5393 5393 5396 5398 5402 5404 5406 5407 5407 5408 5409 5410 5410 5411 5411 5411
5383 5383 5383 5383 5385 5384 5383 5383 5384 5384 5384 5384 5384 5385 5385 5386 5386 5386 5386 5384 5384 5385 5387 5387 5388 5389 5393 5396 5398 5399 5400 5402 5403 5403 5404 5404 5405 5404
5376 5376 5376 5377 5377 5377 5377 5377 5377 5377 5376 5376 5377 5377 5378 5378 5378 5378 5378 5379 5379 5379 5380 5381 5381 5381 5383 5387 5390 5392 5393 5394 5395 5395 5396 5397 5398 5398
5369 5369 5369 5370 5369 5370 5370 5371 5372 5371 5370 5370 5370 5370 5371 5371 5371 5371 5372 5373 5374 5375 5375 5375 5375 5376 5377 5379 5382 5384 5385 5386 5387 5388 5389 5390 5391 5391
5363 5363 5362 5363 5363 5363 5363 5365 5365 5364 5363 5363 5364 5364 5365 5365 5366 5366 5367 5368 5368 5369 5370 5371 5371 5372 5372 5373 5374 5375 5376 5378 5379 5380 5381 5382 5382 5383
5356 5356 5356 5356 5356 5357 5358 5358 5358 5358 5358 5358 5358 5358 5359 5359 5360 5360 5361 5362 5363 5364 5365 5366 5366 5367 5367 5368 5368 5368 5369 5370 5372 5373 5373 5374 5374 5375
5349 5348 5348 5348 5349 5350 5350 5351 5351 5352 5352 5352 5353 5353 5354 5354 5354 5355 5355 5357 5357 5357 5358 5360 5360 5361 5362 5363 5363 5364 5364 5364 5365 5366 5366 5366 5367 5367
5343 5342 5342 5342 5342 5343 5344 5344 5345 5346 5346 5347 5348 5348 5349 5349 5349 5350 5351 5351 5352 5352 5352 5353 5355 5356 5357 5358 5358 5359 5359 5359 5359 5360 5360 5360 5361 5362
5336 5335 5336 5336 5336 5337 5337 5338 5339 5340 5341 5342 5343 5344 5344 5344 5344 5345 5346 5346 5347 5347 5347 5348 5350 5351 5353 5352 5352 5353 5353 5354 5354 5355 5355 5355 5355 5357
5329 5329 5330 5330 5330 5331 5332 5333 5334 5335 5336 5338 5338 5339 5339 5339 5340 5341 5341 5342 5342 5342 5343 5344 5345 5346 5347 5346 5346 5347 5348 5349 5350 5350 5350 5350 5351 5353
5323 5323 5324 5324 5324 5325 5326 5328 5330 5331 5332 5333 5334 5335 5335 5336 5336 5337 5337 5338 5338 5338 5338 5339 5340 5342 5342 5342 5341 5342 5343 5345 5345 5346 5346 5346 5347 5348
5319 5319 5319 5320 5320 5321 5323 5325 5326 5328 5328 5328 5329 5330 5332 5333 5333 5334 5334 5334 5334 5334 5334 5334 5335 5336 5337 5337 5336 5337 5338 5340 5341 5342 5343 5343 5342 5343
5316 5316 5316 5317 5318 5319 5320 5322 5323 5323 5324 5324 5325 5327 5328 5329 5330 5331 5331 5331 5331 5330 5330 5330 5330 5331 5332 5332 5332 5332 5332 5334 5336 5337 5338 5340 5341 5341